Miscellaneous Local Product
Issued by NWS Hastings, NE

Home | Current Version | Previous Version | Graphics & Text | Print | Product List | Glossary On
Versions: 1 2 3 4 5 6 7 8 9 10 11 12 13 14 15 16 17 18 19 20 21 22 23 24 25 26 27 28 29 30 31 32 33 34 35 36 37 38 39 40 41 42 43 44 45 46 47 48 49 50
000
AXUS43 KGID 020202
MISGRI

GID CWA HOURLY WEATHER ROUNDUP
NATIONAL WEATHER SERVICE HASTINGS NE
800 PM CST THU DEC 01 2016

NOTE: "FAIR" INDICATES FEW OR NO CLOUDS BELOW 12,000 FEET WITH NO
SIGNIFICANT WEATHER AND/OR OBSTRUCTIONS TO VISIBILITY.

...SOUTH CENTRAL NEBRASKA...

CITY           SKY/WX    TMP DP  RH WIND       PRES   REMARKS
GRAND ISLAND   CLEAR     30  24  78 CALM      30.03R
HASTINGS       CLEAR     27  21  78 CALM      30.04R
KEARNEY        CLEAR     27  18  69 E6        30.02R WCI  20
ORD            CLOUDY    28  21  75 CALM      30.02R
YORK           CLOUDY    28  23  80 NE5       30.04R WCI  23
AURORA         CLEAR     30  22  73 CALM      30.03R
LEXINGTON      CLEAR     28  19  69 S3        29.99S
HOLDREGE       CLEAR     28  18  65 CALM      30.00R
HEBRON         CLEAR     26  20  79 CALM      30.05R

...NEBRASKA PANHANDLE...

CITY           SKY/WX    TMP DP  RH WIND       PRES   REMARKS
CHADRON        CLOUDY    33  20  58 NW5       30.00R WCI  29
ALLIANCE       CLOUDY    26  15  63 NW5       29.97R WCI  20
SCOTTSBLUFF    PTCLDY    23  11  60 NE5       29.98R WCI  17
SIDNEY         CLEAR     18  10  71 W6        29.98R WCI  10

...WESTERN AND NORTH CENTRAL NEBRASKA...

CITY           SKY/WX    TMP DP  RH WIND       PRES   REMARKS
VALENTINE      CLOUDY    27  21  78 CALM      30.01R
AINSWORTH      CLOUDY    27  24  89 CALM      30.01R
ONEILL         CLOUDY    30  26  88 CALM      30.03R
BROKEN BOW     CLOUDY    30  23  75 E3        30.00R
IMPERIAL       CLEAR     25  12  58 N7        29.99R WCI  17
NORTH PLATTE   CLEAR     24  15  68 CALM      29.99R
MCCOOK         CLEAR     33  16  49 CALM      30.00R

...EASTERN NEBRASKA...

CITY           SKY/WX    TMP DP  RH WIND       PRES   REMARKS
NORFOLK        CLOUDY    31  25  78 CALM      30.04R
SO SIOUX CITY  CLOUDY    35  30  82 W3        30.05R
TEKAMAH        CLOUDY    33  28  81 NW5       30.06R WCI  29
COLUMBUS       CLOUDY    30  25  80 CALM      30.05R
ALBION         CLOUDY    30  25  80 CALM      30.03R
OMAHA EPPLEY   CLOUDY    35  28  75 N3        30.06R
OFFUTT AFB     CLOUDY    32  29  88 CALM      30.05R
MILLARD        CLOUDY    34  28  79 CALM      30.06R
LINCOLN        PTCLDY    31  24  75 N5        30.07R WCI  26
NEBRASKA CITY  PTCLDY    33  24  68 CALM      30.06R
BEATRICE       CLEAR     28  23  79 CALM      30.05R
FALLS CITY     CLOUDY    34  25  69 W5        30.05R WCI  30

...NORTHERN KANSAS...

CITY           SKY/WX    TMP DP  RH WIND       PRES   REMARKS
GOODLAND       CLEAR     25   9  50 SW8       29.99R WCI  16
HILL CITY      CLEAR     28  15  58 CALM      30.01R
NORTON         CLEAR     30  10  43 CALM      30.00R
PHILLIPSBURG   CLEAR     28  18  64 NW6       30.02S WCI  22
SMITH CENTER   CLEAR     28  19  69 E6        30.04R WCI  22
BELOIT         CLEAR     25  18  74 CALM      30.04S
HAYS           CLEAR     34  15  46 CALM      30.04R
RUSSELL        CLEAR     33  16  49 S7        30.02R WCI  27
CONCORDIA      CLEAR     31  19  61 S3        30.04R
SALINA         CLEAR     35  22  58 S3        30.05S
TOPEKA         CLEAR     31  22  69 CALM      30.08R



USA.gov is the U.S. government's official web portal to all federal, state and local government web resources and services.